Regional Weather Roundup
Issued by NWS

Home | Current Version | Previous Version | Graphics & Text | Print | Product List | Glossary On
Versions: 1 2 3 4 5 6 7 8 9 10 11 12 13 14 15 16 17 18 19 20 21 22 23 24 25 26 27 28 29 30 31 32 33 34 35 36 37 38 39 40 41 42 43 44 45 46 47 48 49 50
000
ASUS45 KSLC 252110
RWRUT

UTAH REGIONAL WEATHER ROUNDUP
NATIONAL WEATHER SERVICE SALT LAKE CITY UT
300 PM MDT MON MAY 25 2015

UTZ001>011-023>025-252200-

NORTHERN UTAH

CITY           SKY/WX    TMP DP  RH WIND       PRES   REMARKS
BRIGHAM CITY   PTSUNNY   66  45  47 S6        29.96S
HILL AFB       NOT AVBL
LOGAN          CLOUDY    60  48  64 N12       29.95R
OGDEN          PTSUNNY   66  49  54 NW5       29.95F
PROVO AIRPORT  PTSUNNY   64  43  45 W10G17    30.00S
SALT LAKE CITY MOSUNNY   69  47  45 NW6       29.95S
VERNAL         MOSUNNY   60  44  55 S7        29.98F
WENDOVER       CLOUDY    61  46  59 SW7       29.95S THUNDER
HEBER CITY     PTSUNNY   61  39  44 S3        29.99F
WEST JORDAN    MOSUNNY   64  43  45 W6        29.98S

$$

UTZ012>022-026-027-252200-

SOUTHERN/CENTRAL UTAH

CITY           SKY/WX    TMP DP  RH WIND       PRES   REMARKS
BLANDING       CLOUDY    55  44  68 W7        30.11F
BRYCE CANYON   MOSUNNY   63  35  35 NW14G23   30.09R
CEDAR CITY     MOSUNNY   68  38  33 VRB3      30.01F
DELTA          PTSUNNY   70  38  31 W12G21    29.98F
HANKSVILLE     MOSUNNY   73  36  25 W8        29.95F
MILFORD        SUNNY     69  39  33 CALM      29.99F
MOAB/CYNLANDS  PTSUNNY   69  37  30 NW8       29.92S
PRICE          CLOUDY    61  39  44 E13       29.99R
ST GEORGE      MOCLDY    79  45  29 W12       29.93F
KANAB          MOSUNNY   72  39  30 SW13      30.03S

$$

REGIONAL REPORTS     COLORADO/ARIZONA

CITY           SKY/WX    TMP DP  RH WIND       PRES   REMARKS
CRAIG, CO      PTSUNNY   57  43  59 N7        30.00S
GRAND JUNCTION MOSUNNY   65  42  43 NW8       29.96F
RIFLE          PTSUNNY   61  42  49 NE9       29.99F
MONTROSE       PTSUNNY   59  41  51 S8        30.03F
CORTEZ         CLOUDY    51  42  71 N17G26    30.06R
PAGE, AZ       MOSUNNY   72  43  35 S3        29.95F
GRAND CANYON   MOSUNNY   63  40  42 NW8G21    30.10F
KINGMAN        MOSUNNY   81  39  22 SW13G24   29.97F
FLAGSTAFF      PTSUNNY   57  47  69 SW10      30.12F

$$

REGIONAL REPORTS    NEVADA/IDAHO/WYOMING

CITY           SKY/WX    TMP DP  RH WIND       PRES   REMARKS
LAS VEGAS, NV  MOSUNNY   82  48  30 VRB3      29.86F
ELY            PTSUNNY   64  34  32 S7        30.03F
ELKO           PTSUNNY   62  41  46 N22G29    29.97S
POCATELLO, ID  MOSUNNY   69  42  37 W10       29.92F
BURLEY         MOSUNNY   70  44  39 CALM      29.89F
EVANSTON, WY   PTSUNNY   53  39  59 VRB3      30.05F
ROCK SPRINGS   CLOUDY    56  40  55 W9        30.00F
KEMMERER       LGT RAIN  46  39  76 W10       30.08R

$$



USA.gov is the U.S. government's official web portal to all federal, state and local government web resources and services.